Tracking 20239 objects as of 23-Jan-2020
HD Live streaming from Space Station
objects crossing your sky now

TDO SPACECRAFT

Track TDO SPACECRAFT now!


NORAD ID: 44482
Int'l Code: 2019-051B
Perigee: 251.7 km
Apogee: 35,180.6 km
Inclination: 25.9 °
Period: 620.1 minutes
Semi major axis: 24087 km
RCS: Unknown
Launch date: August 8, 2019
Source: United States (US)
Launch site: AIR FORCE EASTERN TEST RANGE (AFETR)
aabbcc
Your satellite tracking list
Your tracking list is empty




NASA's NSSDC Master Catalog

Two Line Element Set (TLE):
1 44482U 19051B   20022.67523366  .00000233  00000-0  75476-4 0  9993
2 44482  25.9228 234.6774 7250508 289.0396   9.7999  2.32233397  3874
Source of the keplerian elements: AFSPC